Toronto Pearson, Ontario

10:03 PM EDT on July 20, 2019 (GMT -0400)
Toronto-Pearson International

Weather History for CYYZ - May, 2019

Change the Weather History Date:

Sunday, May 19, 2019

  Actual Average Record
Temperature  
Mean Temperature 59 °F -  
Max Temperature 70 °F 71 °F 86 °F (1998)
Min Temperature 48 °F 49 °F 32 °F (2002)
Degree Days  
Heating Degree Days 6    
Growing Degree Days 9 (Base 50)    
Moisture  
Dew Point 49 °F    
Average Humidity 66    
Maximum Humidity 94    
Minimum Humidity 33    
Precipitation  
Precipitation 0.04 in 0.09 in - ()
Sea Level Pressure  
Sea Level Pressure 29.80 in    
Wind  
Wind Speed 10 mph ()    
Max Wind Speed 21 mph    
Max Gust Speed 30 mph    
Visibility 14.1 miles    
Events Rain    
Averages and records for this station are not official NWS values.
T = Trace of Precipitation, MM = Missing Value Source: Averaged Metar Reports

Daily Weather History Graph

Daily Weather History Graph

Search for Another Location

Airport or City:

Astronomy

May. 19, 2019 Rise Set
Actual Time 5:49 AM EDT 8:41 PM EDT
Civil Twilight 5:16 AM EDT 9:14 PM EDT
Nautical Twilight 4:33 AM EDT 9:57 PM EDT
Astronomical Twilight 3:43 AM EDT 10:47 PM EDT
Moon 9:39 PM EDT (5/19) 6:35 AM EDT (5/19)
Length of Visible Light 15h 58m
Length of Day
14h 51m
Full, 99% of the Moon is Illuminated
May 19
Full
May 26
Last Quarter
Jun 3
New
Jun 10
First Quarter
Jun 17
Full

Hourly Weather History & Observations

Time (EDT) Temp. Dew Point Humidity Pressure Visibility Wind Dir Wind Speed Gust Speed Precip Events Conditions
12:00 AM 51.8 °F 26.6 °F 38% 29.92 in 15.0 mi East 15.0 mph - N/A   Mostly Cloudy
1:00 AM 53.6 °F 24.8 °F 33% 29.90 in 15.0 mi East 8.1 mph 17.3 mph N/A   Mostly Cloudy
2:00 AM 52 °F 32 °F 34% 29.89 in 15 mi East 10.4 mph - -   Mostly Cloudy
2:00 AM 51.8 °F 32.0 °F 47% 29.88 in 15.0 mi East 9.2 mph - N/A   Mostly Cloudy
3:00 AM 50.0 °F 35.6 °F 58% 29.86 in 15.0 mi East 10.4 mph - N/A   Scattered Clouds
4:00 AM 50.0 °F 35.6 °F 58% 29.86 in 15.0 mi East 10.4 mph - N/A   Scattered Clouds
5:00 AM 50 °F 37 °F 51% 29.86 in 15 mi NE 10.4 mph - -  
5:00 AM 50.0 °F 37.4 °F 62% 29.86 in 15.0 mi NE 9.2 mph - N/A   Scattered Clouds
6:00 AM 50.0 °F 37.4 °F 62% 29.86 in 15.0 mi East 9.2 mph - N/A   Scattered Clouds
7:00 AM 51.8 °F 39.2 °F 62% 29.87 in 15.0 mi East 4.6 mph - N/A   Partly Cloudy
8:00 AM 54 °F 41 °F 51% 29.87 in 15 mi East 9.2 mph - -   Scattered Clouds
8:00 AM 53.6 °F 41.0 °F 62% 29.87 in 15.0 mi East 10.4 mph - N/A   Partly Cloudy
9:00 AM 57.2 °F 42.8 °F 59% 29.87 in 15.0 mi SE 5.8 mph - N/A   Partly Cloudy
10:00 AM 59.0 °F 46.4 °F 63% 29.86 in 15.0 mi SE 8.1 mph - N/A   Scattered Clouds
11:00 AM 61 °F 48 °F 53% 29.84 in 15 mi SSE 10.4 mph - -  
11:00 AM 60.8 °F 48.2 °F 63% 29.84 in 15.0 mi SSE 10.4 mph 20.7 mph N/A   Mostly Cloudy
12:00 PM 64.4 °F 55.4 °F 73% 29.82 in 15.0 mi East 10.4 mph 18.4 mph N/A   Scattered Clouds
1:00 PM 62.6 °F 50.0 °F 63% 29.81 in 15.0 mi SSE 12.7 mph 23.0 mph N/A   Mostly Cloudy
2:00 PM 65 °F 53 °F 56% 29.78 in 15 mi SE 11.5 mph - -   Scattered Clouds
2:00 PM 64.4 °F 53.6 °F 68% 29.78 in 15.0 mi SE 11.5 mph 21.9 mph N/A   Mostly Cloudy
3:00 PM 66.2 °F 55.4 °F 68% 29.75 in 15.0 mi SSE 12.7 mph 24.2 mph N/A   Mostly Cloudy
4:00 PM 68.0 °F 57.2 °F 68% 29.72 in 15.0 mi SSE 12.7 mph 21.9 mph N/A   Mostly Cloudy
5:00 PM 69.8 °F 59.0 °F 68% 29.69 in 15.0 mi SSE 15.0 mph 20.7 mph N/A   Mostly Cloudy
6:00 PM 68.0 °F 57.2 °F 68% 29.68 in 15.0 mi SSE 11.5 mph 20.7 mph N/A   Mostly Cloudy
7:00 PM 66.2 °F 57.2 °F 73% 29.72 in 12.0 mi South 11.5 mph - N/A Rain Light Rain Showers
7:03 PM 68.0 °F 60.8 °F 78% 29.72 in 6.0 mi SSW 17.3 mph 26.5 mph N/A Rain Rain Showers
7:10 PM 68.0 °F 62.6 °F 83% 29.73 in 10.0 mi SW 19.6 mph 28.8 mph N/A Rain Light Rain Showers
7:17 PM 68.0 °F 62.6 °F 83% 29.74 in 5.0 mi SW 16.1 mph 28.8 mph N/A Rain Rain Showers
7:24 PM 68.0 °F 62.6 °F 83% 29.74 in 12.0 mi SW 20.7 mph 29.9 mph N/A Rain Light Rain Showers
8:00 PM 64 °F 59 °F 79% 29.78 in 12 mi West 12.7 mph - - Rain Light Rain Showers
9:00 PM 62.6 °F 59.0 °F 88% 29.74 in 15.0 mi West 3.5 mph - N/A Rain Light Rain Showers
9:25 PM 62.6 °F 59.0 °F 88% 29.70 in 15.0 mi SSE 9.2 mph - N/A   Mostly Cloudy
10:00 PM 60.8 °F 59.0 °F 94% 29.71 in 15.0 mi SSE 15.0 mph - N/A   Mostly Cloudy
11:00 PM 60 °F 58 °F 92% 29.73 in 15 mi South 17.3 mph - -  
11:00 PM 60.8 °F 59.0 °F 94% 29.73 in 15.0 mi South 18.4 mph - N/A   Partly Cloudy